Regional Weather Roundup
Issued by NWS

Home | Current Version | Previous Version | Graphics & Text | Print | Product List | Glossary On
Versions: 1 2 3 4 5 6 7 8 9 10 11 12 13 14 15 16 17 18 19 20 21 22 23 24 25 26 27 28 29 30 31 32 33 34 35 36 37 38 39 40 41 42 43 44 45 46 47 48 49 50
000
ASUS43 KDMX 280607
RWRIA

WEATHER ROUNDUP FOR IOWA
NATIONAL WEATHER SERVICE DES MOINES IA
100 AM CDT TUE JUL 28 2015

NOTE: "FAIR" INDICATES FEW OR NO CLOUDS BELOW 12,000 FEET WITH NO
SIGNIFICANT WEATHER AND/OR OBSTRUCTIONS TO VISIBILITY.

* - THESE STATIONS ARE NOT NWS STATIONS...THUS NOT UNDER NWS
QUALITY CONTROL.  THEY ALSO DO NOT REPORT WEATHER SUCH
AS PRECIPITATION OR FOG.

IAZ001>003-012>014-020>022-031>034-043>046-280700-
   NORTHWEST IOWA

CITY           SKY/WX    TMP DP  RH WIND       PRES   REMARKS
CARROLL *      MOCLDY    72  70  94 SE10      29.87F
CHEROKEE *     MOCLDY    73  69  89 S7        29.84F
DENISON *      MOCLDY    73  70  88 SE12G22   29.83F
LE MARS *      CLEAR     75  72  88 S7G13     29.82F
ORANGE CITY *  PTCLDY    72  68  88 SE7       29.82F
SHELDON *      CLOUDY    72  68  88 SE13G18   29.82F
SIOUX CITY     PTCLDY    75  69  81 SE14      29.79F
6HR MIN TEMP:  75; 6HR MAX TEMP:  85;

SPENCER        CLOUDY    73  66  78 SE15      29.86F
6HR MIN TEMP:  72; 6HR MAX TEMP:  84;

STORM LAKE *   MOCLDY    72  70  94 SE9       29.87F
$$

IAZ055>058-069>071-079>083-090>094-280700-
   SOUTHWEST IOWA

CITY           SKY/WX    TMP DP  RH WIND       PRES   REMARKS
ATLANTIC *     CLOUDY    75  70  83 S9        29.87F
AUDUBON *      CLEAR     73  70  88 SE7       29.89F
CLARINDA *     CLEAR     75  70  83 S9        29.89F
COUNCIL BLFS * CLEAR     75  72  88 SE17      29.85S
CRESTON *      CLEAR     73  70  88 S10G16    29.91F
HARLAN  *      CLEAR     75  75 100 S9G16     29.89F
LAMONI         CLEAR     74  69  85 S5        29.92S
6HR MIN TEMP:  74; 6HR MAX TEMP:  79;

RED OAK *      CLOUDY    75  70  83 S10       29.86F
SHENANDOAH *   CLEAR     75  72  88 SE10      29.86F
$$

IAZ047>049-059>061-072>074-084-280700-
   CENTRAL IOWA

CITY           SKY/WX    TMP DP  RH WIND       PRES   REMARKS
AMES           MOCLDY    70  69  97 SE5       29.91F
6HR MIN TEMP:  70; 6HR MAX TEMP:  77;

ANKENY *       MOCLDY    72  70  94 SE3       29.90F
CHARITON *     CLEAR     73  72  94 SE7       29.92S
DES MOINES     PTCLDY    74  69  85 SE6       29.90F
6HR MIN TEMP:  72; 6HR MAX TEMP:  77;

GRINNELL*      PTCLDY    72  70  94 E6        29.94S FOG
KNOXVILLE *    CLOUDY    73  70  88 SE6       29.91S
MARSHALLTOWN     N/A     71  70  96 SE7       29.93S
6HR MIN TEMP:  70; 6HR MAX TEMP:  75;

PELLA *        CLEAR     71  71 100 SE7       29.93S
PERRY *          N/A     72  70  94 SE6       29.89F
$$

IAZ004>006-015-016-023>025-035-036-280700-
   NORTH CENTRAL IOWA

CITY           SKY/WX    TMP DP  RH WIND       PRES   REMARKS
ALGONA *       MOCLDY    70  68  94 SE9       29.90F
CLARION *      CLEAR     70  68  94 SE9       29.91F
ESTHERVILLE    MOCLDY    69  66  90 SE9       29.88F
6HR MIN TEMP:  69; 6HR MAX TEMP:  80;

FORT DODGE *   PTCLDY    70  66  88 SE6       29.91F
MASON CITY     CLEAR     71  70  96 SE9       29.94F
6HR MIN TEMP:  71; 6HR MAX TEMP:  75;

FOREST CITY *  CLEAR     70  70 100 SE9       29.92F
IOWA FALLS *     N/A     69  68  95 SE6       29.94S
$$

IAZ007>011-017>019-026>030-037>042-050>054-066-280700-
   NORTHEAST IOWA

CITY           SKY/WX    TMP DP  RH WIND       PRES   REMARKS
CEDAR RAPIDS   MOCLDY    72  72 100 E5        29.95R
6HR MIN TEMP:  72; 6HR MAX TEMP:  79;

CHARLES CITY * CLEAR     72  72 100 SE6       29.96S
CLINTON *      CLEAR     72  70  94 E7        29.99S
DECORAH *      CLEAR     72  70  94 SE5       29.96F
DUBUQUE        CLEAR     73  70  90 SE6       29.99R
6HR MIN TEMP:  72; 6HR MAX TEMP:  82;

MONTICELLO *   PTCLDY    68  68 100 CALM      29.97R FOG
OELWEIN *      CLEAR     72  70  94 SE5       29.97
WATERLOO       CLEAR     72  70  93 SE6       29.94R
6HR MIN TEMP:  72; 6HR MAX TEMP:  81;

$$

IAZ064-065-067-068-078-280700-
   EAST CENTRAL IOWA

CITY           SKY/WX    TMP DP  RH WIND       PRES   REMARKS
DAVENPORT      CLEAR     71  69  93 E6        29.97R
6HR MIN TEMP:  70; 6HR MAX TEMP:  81;

IOWA CITY      PTCLDY    73  71  93 E3        29.96R
6HR MIN TEMP:  73; 6HR MAX TEMP:  80;

MT. PLEASANT * CLEAR     74  71  89 CALM      29.95R FOG
MUSCATINE *    CLEAR     72  70  94 CALM      29.95R
QUAD CITIES    CLEAR     73  69  87 CALM      29.95R
6HR MIN TEMP:  73; 6HR MAX TEMP:  83;

$$

IAZ062-063-075>077-085>089-095>099-280700-
   SOUTHEAST IOWA

CITY           SKY/WX    TMP DP  RH WIND       PRES   REMARKS
BURLINGTON     CLEAR     74  73  97 E5        29.94R
6HR MIN TEMP:  74; 6HR MAX TEMP:  81; 6HR PCP:  0.12;

FAIRFIELD *    CLEAR     72  72 100 E3        29.94S FOG
FORT MADISON * CLEAR     73  73 100 CALM      29.95S FOG
KEOKUK *       FOG       73  73 100 CALM      29.94S VSB 0
OSKALOOSA *    MOCLDY    72  71  96 SE6       29.93F FOG
CENTERVILLE *  CLEAR     73  73 100 SE7       29.94F
OTTUMWA        MOCLDY    72  72 100 SE6       29.91F FOG
6HR MIN TEMP:  71; 6HR MAX TEMP:  75; 6HR PCP: TRACE;

WASHINGTON *   CLEAR     70  70 100 CALM      29.96R FOG
$$

ABBREVIATIONS USED IN REMARKS
   TC - TEMPERATURES IN CELSIUS
  WCI - WIND CHILL INDEX
   HX - HEAT INDEX
  VSB - VISIBILITY
$$




USA.gov is the U.S. government's official web portal to all federal, state and local government web resources and services.